Location: Saratoga Springs
(43.0831°N, 73.7850°W)
Time: 17:18:33
(UTC-04:00)

Vanguard 2 - Pass Details

Date: 25 April 2024
Orbit: 553 x 2914 km, 32.9° (Epoch: 19 May)

Event Time Altitude Azimuth Distance (km) Brightness Sun altitude
Rises 02:09:05 0° 244° (WSW) 5,319 - -30.9°
Reaches altitude 10° 02:12:14 10° 240° (WSW) 4,594 - -30.7°
Exits shadow 02:21:20 46° 208° (SSW) 3,162 10.0 -30.0°
Maximum altitude 02:25:35 55° 167° (SSE) 3,082 10.1 -29.7°
Drops below altitude 10° 02:42:35 10° 97° (E) 5,719 12.2 -28.2°
Sets 02:47:02 0° 94° (E) 6,655 12.7 -27.8°
